sat.trackr.live / text

‹ back to catalog

STARLINK-11261 [DTC]

NORAD 60724 · 2024-152E

PAYLOAD ACTIVE UNKNOWN

§ Identity

Operator
Country
US
Launch date
2024-08-28
Launch site
AFETR
Launch vehicle
Mass (kg)
RCS (m²)

Purposes: comms

External: N2YO · Heavens-Above · Gunter

§ Orbital elements

Epoch: 2026-09-21T03:47:46.696704Z

Period
91.74 min
Inclination
53.1583°
Eccentricity
0.0000811
Mean motion
15.69705228 rev/d
Perigee alt
359.2 km
Apogee alt
360.3 km
Semi-major
6,737.9 km
B*
1.7364e-6
RAAN
232.8135°
Arg perigee
99.8576°
Mean anomaly
260.2534°
Rev number
11,953

§ Raw data

STARLINK-11261 [DTC]1 60724U 24152E   26264.15817936 -.00000378  00000+0  17364-5 0  99972 60724  53.1583 232.8135 0000811  99.8576 260.2534 15.69705228119530

JSON: /api/v1/satellites/60724 · /tle

For live sub-satellite position, see the globe view (requires WebGL).

§ Visibility from observer

Set your observer location to see the next 7 days of passes ≥ 10°. The values pass through the URL so the page stays shareable.

No JS? Fill the form by hand. The geolocation button needs JavaScript.